Location: Gollag?dem
(16.8053°N, 80.8024°E)
Time: 14:22:22
(UTC+00:00)

CZ-2C R/B - Pass Details

Date: 13 August 2020
Orbit: 668 x 784 km, 98.2° (Epoch: 24 September)

Event Time Altitude Azimuth Distance (km) Brightness Sun altitude
Rises 22:44:25 0° 3° (N) 3,035 6.0 -22.5°
Reaches altitude 10° 22:46:41 10° 357° (N) 2,132 5.0 -22.0°
Maximum altitude 22:51:10 48° 284° (WNW) 911 2.5 -21.0°
Enters shadow 22:51:33 47° 267° (W) 928 2.5 -20.9°
